Torna al catalogo

SL-12 DEB

LostHEO
NORAD 41696·DEBRIS·🇷🇺 Russia

Lanciato Mar 1, 2010 da Baikonur Cosmodrome

Loading…

Prossimi Passaggi (prossime 24 ore)

TLE

ObsoletoSource: Space-Track

Epoca: Jun 23, 2026, 08:36 UTC

1 41696U 10007N   26174.35901916  .00228048  00000-0  12697-1 0  9998
2 41696  63.5013 205.0248 5277081  23.7711 353.6892  5.23607850180122

Traccia SL-12 DEB in tempo reale con AllMySat

Download on the App Store